080818 J47  0.4+  0.1-    081006 J79  0.2+  0.6+    081213 J47  0.5+  0.4-  
080818 J47  0.2-  0.0     081006 J20  0.4-  0.3+    081213 J47  0.3-  1.7-  
080818 152  0.1-  0.3+    081006 B42  0.0   0.2-    081214 349  0.1-  0.8+  
080818 152  0.7-  0.4+    081006 B42  0.0   0.2-    081214 349  0.3+  1.0+  
080818 152  0.6-  0.1+    081006 B42  0.4-  0.3-    081214 349  0.1+  1.1+  
080818 152  0.1-  0.5+    081006 B42  0.0   0.1-    081220 703  0.4+  0.1+  
080819 118  0.0   0.3-    081006 B42  0.2+  0.1-    081220 703  0.1+  0.1+  
080819 118  0.4-  0.5-    081007 J47  0.1-  0.1-    081220 703  0.5+  0.3-  
080819 118  0.3-  0.2-    081007 J47  0.0   0.0     081220 703  0.8+  0.2+  
080819 152  0.2-  0.2+    081007 J47  0.2+  0.0     081220 J53  1.2+  0.8-  
080819 152  0.8+  0.6+    081007 J47  0.6-  0.1-    081220 J53  1.2+  0.9-  
080819 152  0.1+  0.2+    081007 703 (2.6-  1.4-)   081220 J53  1.3+  1.1-  
080819 152  0.2+  0.5+    081007 703 (2.4-  1.5-)   081221 212  0.0   0.7+  
080819 152  0.2-  0.3+    081007 703 (2.2-  1.2-)   081223 900 (2.7+  0.5-) 
080819 B42  1.4+  0.8+    081007 J51  0.1-  0.3-    081223 900 (1.3-  4.6+) 
080821 J38  0.1-  0.8+    081007 J51  0.1-  0.3-    081223 132  1.0+  0.1+  
080821 J38  0.0   0.7+    081007 J51  0.1-  0.3-    081223 132  1.5+  0.2+  
080821 J38  0.4+  0.5+    081008 372  0.1-  0.2+    081223 132  1.2+  0.3+  
080823 152  0.5-  0.7+    081008 372  0.0   0.4+    081227 D88  0.6+  1.2+  
080823 152  0.4-  0.8+    081008 372  0.1-  0.3+    081227 D88  0.7+  0.0   
080823 152  0.6-  0.7+    081008 900  0.1-  0.3-    081229 704  0.3+  0.5+  
080823 152  1.0-  0.8+    081008 900  0.1-  0.3-    081229 704  0.8+  1.0+  
080823 152  0.5-  0.9+    081009 J47  0.1-  0.1+    081229 704  0.7+  0.9+  
080823 J52  0.2+  0.3-    081009 J47  0.2-  0.1-    081229 704  0.1+  0.6+  
080823 J52  0.0   0.3-    081009 J47  0.1+  0.2-    081229 704  1.6+  1.0+  
080823 J52  0.1-  0.4-    081009 J47  0.6-  0.6-    081230 704  1.2+  0.7-  
080825 046  0.1-  0.2+    081010 J38  0.1-  0.1+    081230 704  0.6+  0.3+  
080825 046  0.1-  0.3+    081010 J38  0.4-  0.1+    081230 704  1.3-  0.1+  
080825 046  0.0   0.2+    081010 J38  0.6-  0.1-    081230 704  0.5+  1.4+  
080825 046  0.0   0.2+    081010 232  0.1-  0.3-    081230 130  0.6+  0.6+  
080825 046  0.1+  0.3+    081010 232  0.6-  0.3-    081230 130  1.4+  0.0   
080825 046  0.1-  0.3+    081010 232  0.0   0.5-    081230 130  0.8+  0.4+  
080825 046  0.1+  0.3+    081011 J51  0.1-  0.4-    2009/                   
080825 046  0.1+  0.2+    081011 J51  0.0   0.3-    090101 204  1.1+  0.8+  
080826 A77  0.4-  0.5+    081011 J51  0.1+  0.2-    090101 204  0.5+  0.3+  
080826 A77  0.2+  0.2+    081018 J51  0.3+  0.4+    090101 J38  1.2-  0.1-  
080826 A77  0.0   0.2+    081018 J51  0.2-  0.4+    090101 J38  1.4-  0.7+  
080827 585  0.3+  0.1-    081018 J51  0.5-  0.3+    090102 G96  0.4-  1.5+  
080827 585  0.4+  0.2+    081018 B74  0.1+  1.3-    090102 G96  0.0   1.4+  
080827 585  0.3+  0.4+    081018 900  0.3-  0.3-    090102 G96  0.2+  1.3+  
080827 585  0.1+  0.0     081018 900  0.4-  0.4-    090102 G96  1.0+  1.6+  
080827 585  0.2+  0.2+    081018 349  0.4-  0.1-    090102 349  0.4+  0.7+  
080827 585  0.0   0.2-    081018 349  0.5-  0.0     090102 349  0.2+  0.7+  
080827 215  0.1-  0.1-    081018 349  0.4-  0.2-    090102 349  0.4+  0.6+  
080827 215  0.0   0.1-    081018 B42  0.7-  0.4-    090112 900  1.1+  0.2+  
080827 215  0.0   0.2-    081018 B42  0.2-  0.5-    090112 900  1.4+  0.3+  
080829 213  0.1+  0.5+    081018 B42  0.4-  0.6-    090113 215  1.0+  0.2-  
080829 213  0.5+  0.3-    081018 J59  0.3-  0.8-    090119 703  0.0   1.6+  
080829 213  0.4+  0.2+    081018 J59  0.5-  0.2-    090119 703 (0.4-  2.6+) 
080829 B09  0.9-  0.2-    081018 J59  0.0   0.4-    090119 703 (0.2-  2.9+) 
080829 B09  0.9-  0.3-    081018 J38  0.3-  0.2-    090119 703  1.5+  1.0+  
080829 939  0.3-  0.2+    081018 J38  0.1-  0.4-    090121 704  1.7+  0.4-  
080830 939  0.3-  0.1+    081018 J38  0.3-  0.5-    090121 704  0.1+  0.8+  
080830 939  0.3-  0.0     081019 130  0.1-  0.3-    090121 704  1.0+  1.0+  
080830 J51  0.0   0.1-    081019 130  0.1-  0.1-    090121 704  1.5+  0.1+  
080830 170  0.0   0.1-    081019 130  0.1-  0.5-    090121 204  1.9+  0.6+  
080830 J51  0.1+  0.1-    081019 130  0.2-  0.4-    090129 703  0.3-  0.8+  
080830 170  0.0   0.1-    081019 J38  0.3-  0.3-    090129 703  1.5-  0.8+  
080830 B37  0.1+  0.4+    081019 J38  0.2-  0.1-    090129 703  1.7-  1.8+  
080830 J51  0.2+  0.1-    081019 J38  0.2-  0.1-    090129 703  0.7+  0.4+  
080830 B37  0.2+  0.4+    081020 H47  0.2-  0.4-                            
080830 B37  0.5+  0.5+    081020 H47  0.1-  0.0                             


    C/2008 Q1 (Maticic)
Epoch 2009 Jan. 9.0 TT = JDT 2454840.5  
T 2008 Dec. 30.13300 TT                                 Nakano
q   2.9591439            (2000.0)            P               Q
z  +0.0016834      Peri.  104.48069     -0.17173502     -0.97486031
 +/-0.0000006      Node     9.30773     -0.79516405     +0.05209792
e   0.9950186      Incl.  118.62657     +0.58156790     -0.21664068
From 953 observations 2008 Aug. 18-2009 July 30, mean residual 0".51.
   (1/a)org.= +0.001759, (1/a)fut.= +0.001823 (+/-0.000001), Q= 8.
Residuals in seconds of arc 
2008/                     080912 J47  0.1+  0.4-    090331 118  0.2+  0.1-  
080818 106  0.3+  0.4-    080912 J47  0.1-  1.0-    090401 H45  0.0   0.1+  
080818 106  0.5+  0.1-    080912 J47  0.6-  0.4-    090401 H45  0.1+  0.1+  
080818 106  0.1-  0.3-    080912 A77 (2.7+  2.0+)   090401 H45  0.2-  0.1+  
080818 106  0.2+  0.5-    080912 B37  0.4+  0.3-    090401 H45  0.0   0.2+  
080819 B03  0.4-  0.1-    080912 B37 (2.0-  1.5-)   090401 H45  0.1+  0.1+  
080819 106  0.7-  0.7+    080912 A77  1.0+  0.5-    090401 H45  0.0   0.2+  
080819 118  0.0   0.1+    080912 A77  1.4+  0.3-    090403 510  0.1+  0.1-  
080819 118  0.3-  0.8+    080913 J51  0.1+  0.3-    090403 510  0.0   0.9+  
080819 106  0.2-  0.2+    080913 J51  0.1+  0.1-    090403 510  0.0   0.4+  
080819 118  0.2-  0.1+    080913 J51  0.0   0.1+    090404 H10  1.9+  0.5-  
080819 B03  0.3-  0.4+    080914 B37  0.3-  0.1-    090405 J52  0.6-  0.9-  
080819 106  0.0   0.1+    080914 B37  0.6-  0.6-    090405 J52  0.0   0.7-  
080819 106  0.0   0.7+    080914 B37  0.3-  0.2+    090405 J52  0.1-  0.6-  
080819 B03  0.1+  0.2-    080914 B37  0.4-  0.2+    090405 D81  0.5+  0.5-  
080819 595  0.1+  0.2-    080914 B37  0.5-  0.6-    090405 D81  0.4+  0.2+  
080819 B55  0.1+  0.0     080914 B37  0.3-  0.2-    090405 D93  0.0   0.5+  
080819 B03  0.0   0.7+    080914 B37  0.0   0.4-    090405 D93  1.2-  1.0+  
080819 595  0.1-  0.2+    080914 B37  0.0   0.4+    090405 D93  0.4+  1.3+  
080819 B03  0.2-  0.2+    080914 J38  0.4+  0.1+    090405 J38 (3.1+  1.3-) 
080819 B55  0.3-  0.2+    080914 J38  0.6+  0.0     090405 J38 (2.3+  1.0-) 
080819 B55  0.9-  0.4+    080914 J38  0.3+  0.0     090406 379  0.1-  1.0+  
080819 B03  0.0   0.1-    080914 B37  0.1+  0.6-    090406 379  0.2-  0.5+  
080819 595  0.3-  0.1-    080914 B37  0.5-  0.2-    090406 379  0.6-  0.3+  
080819 B03  0.1+  0.2-    080914 B37  0.5-  0.1-    090406 D93  0.4-  0.3+  
080819 B03  0.1-  0.0     080914 B37 (0.0   2.0+)   090406 D93  0.6-  0.3+  
080819 J95  0.1+  0.0     080915 J97  0.4+  1.0+    090406 D93  0.7-  0.5+  
080819 235  0.1-  0.1+    080915 J97  0.3+  1.2+    090413 204  0.0   0.1+  
080819 J95  0.1-  0.2+    080915 J97  0.3+  0.9+    090413 204  0.2-  0.3-  
080819 J95  0.0   0.2+    080915 B37  0.1-  0.5-    090414 114  0.1+  0.4+  
080819 235  0.0   0.0     080915 B37  0.2-  0.1+    090414 114  0.4-  0.1+  
080819 J95  0.1-  0.1+    080915 A13  1.1+  0.5+    090414 114  0.1-  0.0   
080819 J95  0.0   0.2+    080915 B37  0.1-  0.2-    090414 114  0.2-  0.3+  
080820 H85  0.2-  0.1+    080915 B37  0.3-  0.1-    090414 114  0.0   0.1-  
080820 H55  0.2-  0.3+    080915 A13  0.8-  0.0     090414 B70  0.5+  0.1-  
080820 H55  0.1-  0.2+    080915 B37  0.1-  0.2-    090414 B70  0.2+  0.0   
080820 H55  0.1+  0.1+    080915 B37  0.1-  0.5-    090415 379  0.3-  0.5-  
080820 H85  0.2+  0.1+    080915 J47  0.1+  0.8+    090415 379  0.0   0.2-  
080820 932  0.0   0.2+    080915 J47  0.5+  0.5+    090415 379  0.6+  0.1+  
080820 932  0.1-  0.3+    080915 J47  0.4+  0.7-    090416 510  0.1-  0.4+  
080820 932  0.1-  0.3+    080915 J47  0.6+  0.7-    090416 510  0.4+  0.8+  
080820 355  1.3+  0.4-    080915 J47  1.0+  1.1-    090416 510  0.0   0.9+  
080820 355 (2.0+  0.2-)   080916 673  0.0   0.4+    090418 A13  0.5-  0.1+  
080820 355  0.8+  0.3+    080916 673  0.1-  0.0     090418 A13  0.4-  0.2+  
080820 355  1.4+  0.8+    080916 673  0.0   0.2+    090420 703  0.5+  0.8-  
080820 900  0.4-  0.5+    080916 673  0.0   0.7+    090420 703  0.8-  0.1-  
080820 900  0.4-  0.1+    080916 900  0.2+  0.5+    090420 703 (1.9+  2.3-) 
080820 106  1.1-  0.9-    080916 900  0.2-  0.2-    090420 703  0.5-  0.4+  
080820 104  0.3-  0.0     080916 A13 (3.9-  0.0 )   090420 B59  0.1-  0.6+  
080820 106  0.2+  1.2-    080916 A13 (3.3-  0.8+)   090420 B59  0.1+  0.4+  
080820 106  0.2-  1.0+    080916 J51  0.2-  0.5-    090420 B59  0.0   0.3+  
080820 104  0.1-  0.1-    080916 J51  0.2+  0.4-    090421 J47  1.6+  0.8+  
080820 473  0.2+  0.4-    080916 J51  0.8+  0.1-    090421 J47  0.4-  0.1+  
080820 104  0.0   0.1-    080916 204  0.2+  0.1+    090421 J47  0.3-  0.4+  
080820 106  0.1-  0.1+    080917 204  0.3-  0.4+    090421 046  0.2+  0.5+  
080820 461  0.6-  0.1-    080917 213  0.1+  0.3-    090421 046  0.1-  0.3+  
080820 461  0.4-  0.2+    080917 213  0.1+  0.2-    090421 046  0.2+  0.1+  
080820 461  0.2-  0.1+    080917 B37  0.1+  0.8-    090421 046  0.1-  0.2+  
080820 147  0.6-  0.3-    080917 B37  0.5+  0.7-    090421 046  0.1-  0.4+  
080820 147  0.1+  0.0     080917 B37  0.2-  0.1-    090421 B42  0.7-  0.4+  
